Hourly Data Report for October 15, 2015

All times are specified in Local Standard Time (LST). Add 1 hour to adjust for Daylight Saving Time where and when it is observed.

RANKIN INLET A
NUNAVUT

62°48'38.000" N
92°06'53.000" W
32.30 m
2303405
71083
YRT

Download Data

Hourly Data (October 2015)
Hourly Data Report for October 15, 2015
Temp Definition
°C
Dew Point Temp Definition
°C
Rel Hum Definition
%
Wind Dir Definition
10's deg

Wind Spd Definition
km/h
Visibility Definition
km
Stn Press Definition
kPa
Hmdx Definition


Wind Chill Definition


Weather Definition


TIME
00:00 Legend Double Dagger -9.0 -12.5 76 35 39 16.1 100.99   -19 Snow
01:00 Legend Double Dagger -8.6 -12.4 74 35 45 16.1 101.02   -19 Snow
02:00 Legend Double Dagger -8.6 -11.9 77 34 43 12.9 101.04   -19 Snow
03:00 Legend Double Dagger -8.7 -12.2 76 34 38 16.1 101.08   -19 Snow
04:00 Legend Double Dagger -8.5 -12.2 75 35 36 16.1 101.11   -18 Snow
05:00 Legend Double Dagger -8.2 -11.6 77 34 39 24.1 101.16   -18 Snow
06:00 Legend Double Dagger -8.5 -11.2 81 34 40 24.1 101.19   -19 LegendNANA
07:00 Legend Double Dagger -9.1 -12.4 77 35 36 24.1 101.26   -19 Snow
08:00 Legend Double Dagger -8.4 -11.9 76 34 36 24.1 101.27   -18 Snow
09:00 Legend Double Dagger -8.2 -11.6 77 32 32 9.7 101.33   -17 Snow
10:00 Legend Double Dagger -8.5 -12.2 75 32 31 9.7 101.38   -18 Snow
11:00 Legend Double Dagger -7.9 -11.8 74 33 31 9.7 101.40   -17 Snow
12:00 Legend Double Dagger -7.7 -11.1 77 32 30 6.4 101.42   -17 Snow,Blowing Snow
13:00 Legend Double Dagger -8.0 -11.5 76 32 36 9.7 101.42   -18 Snow,Blowing Snow
14:00 Legend Double Dagger -7.5 -10.9 77 31 33 9.7 101.42   -17 Snow,Blowing Snow
15:00 Legend Double Dagger -8.0 -11.5 76 30 32 16.1 101.47   -17 Snow
16:00 Legend Double Dagger -9.1 -12.4 77 29 28 16.1 101.49   -18 Snow
17:00 Legend Double Dagger -10.2 -13.3 78 29 23 24.1 101.51   -19 Snow
18:00 Legend Double Dagger -10.8 -13.6 80 30 28 24.1 101.55   -20 Snow
19:00 Legend Double Dagger -10.2 -12.9 81 30 29 24.1 101.54   -20 Snow
20:00 Legend Double Dagger -10.4 -13.2 80 32 31 24.1 101.50   -20 Snow
21:00 Legend Double Dagger -10.6 -13.1 82 30 23 16.1 101.52   -19 Snow
22:00 Legend Double Dagger -10.9 -13.6 81 31 25 12.9 101.51   -20 Snow
23:00 Legend Double Dagger -10.8 -13.5 81 32 25 24.1 101.52   -20 Snow

Notes on Data Quality.

Legend

  • E = Estimated
  • M = Missing
  • NA = Not Available
  • ‡ = Partner data that is not subject to review by the National Climate Archives
Date modified: